Time,TemperatureF,DewpointF,PressureIn,WindDirection,WindDirectionDegrees,WindSpeedMPH,WindSpeedGustMPH,Humidity,HourlyPrecipIn,Conditions,Clouds,dailyrainin,SoftwareType,DateUTC
2013-05-12 00:01:00,50.8,47.4,29.47,ESE,113,0.0,0.0,88,0.00,RA,,0.00,WeatherDisplay:10.37,2013-05-12 04:01:00,
2013-05-12 00:02:00,50.8,47.4,29.47,ESE,113,2.3,2.3,88,0.00,RA,,0.00,WeatherDisplay:10.37,2013-05-12 04:02:00,
2013-05-12 00:03:00,50.8,47.1,29.47,ESE,113,2.3,2.3,87,0.00,RA,,0.00,WeatherDisplay:10.37,2013-05-12 04:03:00,
2013-05-12 00:08:00,50.8,47.1,29.47,ESE,113,2.3,2.3,87,0.00,RA,,0.00,WeatherDisplay:10.37,2013-05-12 04:08:00,
2013-05-12 00:13:00,50.8,47.4,29.47,ESE,113,0.0,0.0,88,0.00,CLR,,0.00,WeatherDisplay:10.37,2013-05-12 04:13:00,
2013-05-12 00:18:00,50.7,47.0,29.47,ESE,113,0.0,0.0,87,0.00,CLR,,0.00,WeatherDisplay:10.37,2013-05-12 04:18:00,
2013-05-12 00:23:00,50.7,47.3,29.47,ESE,113,0.0,0.0,88,0.00,CLR,,0.00,WeatherDisplay:10.37,2013-05-12 04:23:00,
2013-05-12 00:28:00,50.1,46.7,29.47,ESE,113,0.0,0.0,88,0.00,CLR,,0.00,WeatherDisplay:10.37,2013-05-12 04:28:00,
2013-05-12 00:33:00,50.0,46.9,29.47,ESE,113,0.0,0.0,89,0.00,CLR,,0.00,WeatherDisplay:10.37,2013-05-12 04:33:00,
2013-05-12 00:38:00,50.0,46.9,29.47,ESE,113,0.0,0.0,89,0.00,CLR,,0.00,WeatherDisplay:10.37,2013-05-12 04:38:00,
2013-05-12 00:43:00,49.9,47.1,29.48,ESE,113,0.0,0.0,90,0.00,CLR,,0.00,WeatherDisplay:10.37,2013-05-12 04:43:00,
2013-05-12 00:48:00,49.9,46.8,29.47,ESE,113,0.0,0.0,89,0.00,CLR,,0.00,WeatherDisplay:10.37,2013-05-12 04:48:00,
2013-05-12 00:54:00,49.9,47.1,29.47,ESE,113,0.0,0.0,90,0.00,CLR,,0.00,WeatherDisplay:10.37,2013-05-12 04:54:00,
2013-05-12 00:59:00,49.9,47.1,29.48,ESE,113,0.0,0.0,90,0.00,CLR,,0.00,WeatherDisplay:10.37,2013-05-12 04:59:00,
2013-05-12 01:04:00,49.9,46.8,29.47,ESE,113,0.0,0.0,89,0.00,CLR,,0.00,WeatherDisplay:10.37,2013-05-12 05:04:00,
2013-05-12 01:09:00,50.0,46.9,29.47,ESE,113,0.0,0.0,89,0.00,CLR,,0.00,WeatherDisplay:10.37,2013-05-12 05:09:00,
2013-05-12 01:14:00,50.2,46.8,29.48,ESE,113,0.0,0.0,88,0.00,CLR,,0.00,WeatherDisplay:10.37,2013-05-12 05:14:00,
2013-05-12 01:19:00,50.3,46.9,29.47,ESE,113,2.0,2.0,88,0.00,CLR,,0.00,WeatherDisplay:10.37,2013-05-12 05:19:00,
2013-05-12 01:24:00,50.3,46.9,29.47,ESE,118,2.3,2.3,88,0.00,CLR,,0.00,WeatherDisplay:10.37,2013-05-12 05:24:00,
2013-05-12 01:29:00,50.2,46.8,29.47,ESE,118,0.0,0.0,88,0.00,CLR,,0.00,WeatherDisplay:10.37,2013-05-12 05:29:00,
2013-05-12 01:34:00,50.2,46.8,29.47,ESE,118,0.0,0.0,88,0.00,CLR,,0.00,WeatherDisplay:10.37,2013-05-12 05:34:00,
2013-05-12 01:39:00,50.2,46.8,29.47,ESE,118,0.0,0.0,88,0.00,CLR,,0.00,WeatherDisplay:10.37,2013-05-12 05:39:00,
2013-05-12 01:44:00,50.4,47.0,29.47,ESE,118,0.0,0.0,88,0.00,CLR,,0.00,WeatherDisplay:10.37,2013-05-12 05:44:00,
2013-05-12 01:49:00,50.4,46.7,29.47,ESE,118,0.0,0.0,87,0.00,CLR,,0.00,WeatherDisplay:10.37,2013-05-12 05:49:00,
2013-05-12 01:54:00,50.5,46.8,29.47,ESE,118,0.0,0.0,87,0.00,CLR,,0.00,WeatherDisplay:10.37,2013-05-12 05:54:00,
2013-05-12 01:59:00,50.5,46.8,29.47,ESE,118,0.0,0.0,87,0.00,CLR,,0.00,WeatherDisplay:10.37,2013-05-12 05:59:00,
2013-05-12 02:04:00,50.4,47.0,29.47,ESE,118,0.0,0.0,88,0.00,CLR,,0.00,WeatherDisplay:10.37,2013-05-12 06:04:00,
2013-05-12 02:09:00,50.3,46.9,29.46,ESE,118,2.3,0.0,88,0.00,CLR,,0.00,WeatherDisplay:10.37,2013-05-12 06:09:00,
2013-05-12 02:14:00,50.2,46.8,29.46,ESE,118,1.2,1.2,88,0.00,CLR,,0.00,WeatherDisplay:10.37,2013-05-12 06:14:00,
2013-05-12 02:19:00,50.1,47.0,29.46,ESE,118,1.2,0.0,89,0.00,CLR,,0.00,WeatherDisplay:10.37,2013-05-12 06:19:00,
2013-05-12 02:24:00,49.8,46.7,29.46,ESE,118,0.0,0.0,89,0.00,CLR,,0.00,WeatherDisplay:10.37,2013-05-12 06:24:00,
2013-05-12 02:29:00,49.4,46.6,29.46,ESE,118,0.0,0.0,90,0.00,CLR,,0.00,WeatherDisplay:10.37,2013-05-12 06:29:00,
2013-05-12 02:34:00,49.3,46.5,29.46,ESE,118,1.2,1.2,90,0.00,CLR,,0.00,WeatherDisplay:10.37,2013-05-12 06:34:00,
2013-05-12 02:39:00,49.2,46.7,29.46,ESE,118,0.0,0.0,91,0.00,CLR,,0.00,WeatherDisplay:10.37,2013-05-12 06:39:00,
2013-05-12 02:44:00,48.9,46.4,29.46,ESE,118,2.3,2.3,91,0.00,CLR,,0.00,WeatherDisplay:10.37,2013-05-12 06:44:00,
2013-05-12 02:49:00,48.7,46.2,29.46,ESE,118,4.0,4.0,91,0.00,CLR,,0.00,WeatherDisplay:10.37,2013-05-12 06:49:00,
2013-05-12 02:54:00,48.5,46.3,29.46,ESE,118,3.5,3.5,92,0.00,CLR,,0.00,WeatherDisplay:10.37,2013-05-12 06:54:00,
2013-05-12 02:59:00,48.6,46.4,29.46,ESE,118,1.2,1.2,92,0.00,CLR,,0.00,WeatherDisplay:10.37,2013-05-12 06:59:00,
2013-05-12 03:04:00,48.6,46.4,29.46,ESE,118,0.0,0.0,92,0.00,CLR,,0.00,WeatherDisplay:10.37,2013-05-12 07:04:00,
2013-05-12 03:09:00,48.7,46.8,29.45,ESE,118,0.0,0.0,93,0.00,CLR,,0.00,WeatherDisplay:10.37,2013-05-12 07:09:00,
2013-05-12 03:14:00,48.8,46.9,29.45,ESE,118,0.0,0.0,93,0.00,CLR,,0.00,WeatherDisplay:10.37,2013-05-12 07:14:00,
2013-05-12 03:19:00,49.0,46.8,29.45,ESE,118,3.5,3.5,92,0.00,CLR,,0.00,WeatherDisplay:10.37,2013-05-12 07:19:00,
2013-05-12 03:24:00,49.2,47.0,29.45,ESE,118,4.6,4.6,92,0.00,CLR,,0.00,WeatherDisplay:10.37,2013-05-12 07:24:00,
2013-05-12 03:29:00,49.2,47.0,29.45,ESE,119,4.6,4.6,92,0.00,CLR,,0.00,WeatherDisplay:10.37,2013-05-12 07:29:00,
2013-05-12 03:34:00,49.0,46.8,29.45,SE,124,4.0,4.0,92,0.00,CLR,,0.00,WeatherDisplay:10.37,2013-05-12 07:34:00,
2013-05-12 03:39:00,49.0,46.8,29.45,ESE,123,3.5,3.5,92,0.00,CLR,,0.00,WeatherDisplay:10.37,2013-05-12 07:39:00,
2013-05-12 03:44:00,48.9,46.7,29.44,ESE,123,3.5,3.5,92,0.00,CLR,,0.00,WeatherDisplay:10.37,2013-05-12 07:44:00,
2013-05-12 03:49:00,48.9,46.7,29.44,ESE,123,2.3,2.3,92,0.00,CLR,,0.00,WeatherDisplay:10.37,2013-05-12 07:49:00,
2013-05-12 03:54:00,48.8,46.6,29.44,ESE,123,0.0,0.0,92,0.00,CLR,,0.00,WeatherDisplay:10.37,2013-05-12 07:54:00,
2013-05-12 03:59:00,48.9,46.7,29.44,ESE,123,2.3,2.3,92,0.00,CLR,,0.00,WeatherDisplay:10.37,2013-05-12 07:59:00,
2013-05-12 04:04:00,48.9,46.7,29.44,ESE,123,2.3,2.3,92,0.00,CLR,,0.00,WeatherDisplay:10.37,2013-05-12 08:04:00,
2013-05-12 04:09:00,49.0,46.8,29.44,ESE,123,2.0,2.0,92,0.00,CLR,,0.00,WeatherDisplay:10.37,2013-05-12 08:09:00,
2013-05-12 04:14:00,49.1,46.9,29.44,ESE,123,2.3,2.3,92,0.00,CLR,,0.00,WeatherDisplay:10.37,2013-05-12 08:14:00,
2013-05-12 04:19:00,49.1,46.9,29.44,ESE,123,0.0,0.0,92,0.00,CLR,,0.00,WeatherDisplay:10.37,2013-05-12 08:19:00,
2013-05-12 04:24:00,49.2,47.0,29.44,ESE,123,0.0,0.0,92,0.00,CLR,,0.00,WeatherDisplay:10.37,2013-05-12 08:24:00,
2013-05-12 04:29:00,49.3,47.1,29.44,ESE,123,1.2,1.2,92,0.00,CLR,,0.00,WeatherDisplay:10.37,2013-05-12 08:29:00,
2013-05-12 04:34:00,49.3,47.1,29.44,ESE,123,4.0,4.0,92,0.00,CLR,,0.00,WeatherDisplay:10.37,2013-05-12 08:34:00,
2013-05-12 04:39:00,49.1,46.9,29.44,ESE,123,3.5,3.5,92,0.00,CLR,,0.00,WeatherDisplay:10.37,2013-05-12 08:39:00,
2013-05-12 04:44:00,48.7,46.5,29.44,ESE,123,3.5,3.5,92,0.00,CLR,,0.00,WeatherDisplay:10.37,2013-05-12 08:44:00,
2013-05-12 04:49:00,48.2,46.0,29.43,ESE,123,2.0,2.0,92,0.00,CLR,,0.00,WeatherDisplay:10.37,2013-05-12 08:49:00,
2013-05-12 04:54:00,48.0,45.8,29.43,ESE,123,1.2,1.2,92,0.00,CLR,,0.00,WeatherDisplay:10.37,2013-05-12 08:54:00,
2013-05-12 04:59:00,48.0,46.1,29.43,ESE,123,0.0,0.0,93,0.00,CLR,,0.00,WeatherDisplay:10.37,2013-05-12 08:59:00,
2013-05-12 05:04:00,47.6,45.4,29.42,ESE,123,2.3,0.0,92,0.00,CLR,,0.00,WeatherDisplay:10.37,2013-05-12 09:04:00,
2013-05-12 05:09:00,47.5,45.6,29.42,ESE,123,0.0,0.0,93,0.00,CLR,,0.00,WeatherDisplay:10.37,2013-05-12 09:09:00,
2013-05-12 05:14:00,47.5,45.6,29.42,ESE,123,0.0,0.0,93,0.00,CLR,,0.00,WeatherDisplay:10.37,2013-05-12 09:14:00,
2013-05-12 05:19:00,47.3,45.4,29.42,ESE,123,0.0,0.0,93,0.00,CLR,,0.00,WeatherDisplay:10.37,2013-05-12 09:19:00,
2013-05-12 05:24:00,47.2,45.3,29.42,ESE,123,0.0,0.0,93,0.00,CLR,,0.00,WeatherDisplay:10.37,2013-05-12 09:24:00,
2013-05-12 05:29:00,47.2,45.6,29.42,ESE,123,0.0,0.0,94,0.00,CLR,,0.00,WeatherDisplay:10.37,2013-05-12 09:29:00,
2013-05-12 05:34:00,47.0,45.1,29.42,ESE,123,0.0,0.0,93,0.00,CLR,,0.00,WeatherDisplay:10.37,2013-05-12 09:34:00,
2013-05-12 05:39:00,46.3,44.4,29.42,ESE,123,2.3,2.3,93,0.00,CLR,,0.00,WeatherDisplay:10.37,2013-05-12 09:39:00,
2013-05-12 05:44:00,46.8,44.9,29.42,ESE,123,0.0,0.0,93,0.00,CLR,,0.00,WeatherDisplay:10.37,2013-05-12 09:44:00,
2013-05-12 05:49:00,47.3,45.7,29.42,ESE,123,2.3,2.3,94,0.00,CLR,,0.00,WeatherDisplay:10.37,2013-05-12 09:49:00,
2013-05-12 05:54:00,47.7,45.8,29.43,ESE,123,3.5,3.5,93,0.00,CLR,,0.00,WeatherDisplay:10.37,2013-05-12 09:54:00,
2013-05-12 05:59:00,48.3,46.4,29.43,SE,125,3.5,3.5,93,0.00,CLR,,0.00,WeatherDisplay:10.37,2013-05-12 09:59:00,
2013-05-12 06:04:00,48.8,46.6,29.42,SE,127,2.3,2.3,92,0.00,CLR,,0.00,WeatherDisplay:10.37,2013-05-12 10:04:00,
2013-05-12 06:09:00,49.0,46.5,29.43,SE,128,2.3,2.3,91,0.00,CLR,,0.00,WeatherDisplay:10.37,2013-05-12 10:09:00,
2013-05-12 06:14:00,49.3,46.5,29.42,SE,128,3.5,3.5,90,0.00,CLR,,0.00,WeatherDisplay:10.37,2013-05-12 10:14:00,
2013-05-12 06:19:00,49.7,46.6,29.42,SE,128,1.2,1.2,89,0.00,CLR,,0.00,WeatherDisplay:10.37,2013-05-12 10:19:00,
2013-05-12 06:24:00,50.0,46.0,29.43,SW,222,5.8,5.8,86,0.00,CLR,,0.00,WeatherDisplay:10.37,2013-05-12 10:24:00,
2013-05-12 06:29:00,50.1,46.1,29.43,SW,235,4.6,4.6,86,0.00,CLR,,0.00,WeatherDisplay:10.37,2013-05-12 10:29:00,
2013-05-12 06:34:00,49.9,45.9,29.43,SW,215,5.0,5.0,86,0.00,CLR,,0.00,WeatherDisplay:10.37,2013-05-12 10:34:00,
2013-05-12 06:39:00,49.8,45.5,29.44,WSW,252,18.4,18.4,85,0.00,CLR,,0.00,WeatherDisplay:10.37,2013-05-12 10:39:00,
2013-05-12 06:44:00,50.1,45.8,29.44,West,261,16.1,16.1,85,0.00,CLR,,0.00,WeatherDisplay:10.37,2013-05-12 10:44:00,
2013-05-12 06:49:00,50.0,45.7,29.45,NW,310,20.7,20.7,85,0.00,CLR,,0.00,WeatherDisplay:10.37,2013-05-12 10:49:00,
2013-05-12 06:54:00,49.5,45.5,29.45,WNW,284,11.5,11.5,86,0.00,CLR,,0.00,WeatherDisplay:10.37,2013-05-12 10:54:00,
2013-05-12 06:59:00,48.7,44.7,29.46,WNW,296,15.0,15.0,86,0.00,CLR,,0.00,WeatherDisplay:10.37,2013-05-12 10:59:00,
2013-05-12 07:04:00,48.1,44.4,29.46,West,259,13.8,13.8,87,0.00,CLR,,0.00,WeatherDisplay:10.37,2013-05-12 11:04:00,
2013-05-12 07:09:00,47.4,43.7,29.46,WNW,288,11.0,11.0,87,0.00,CLR,,0.00,WeatherDisplay:10.37,2013-05-12 11:09:00,
2013-05-12 07:14:00,46.7,42.7,29.47,WNW,303,15.0,15.0,86,0.00,CLR,,0.00,WeatherDisplay:10.37,2013-05-12 11:14:00,
2013-05-12 07:19:00,46.2,42.2,29.47,WNW,296,12.7,12.7,86,0.00,CLR,,0.00,WeatherDisplay:10.37,2013-05-12 11:19:00,
2013-05-12 07:24:00,45.9,41.9,29.47,West,281,9.2,9.2,86,0.00,CLR,,0.00,WeatherDisplay:10.37,2013-05-12 11:24:00,
2013-05-12 07:29:00,45.7,42.1,29.47,WNW,296,10.0,10.0,87,0.00,CLR,,0.00,WeatherDisplay:10.37,2013-05-12 11:29:00,
2013-05-12 07:34:00,45.4,41.5,29.48,West,281,24.2,24.2,86,0.00,CLR,,0.00,WeatherDisplay:10.37,2013-05-12 11:34:00,
2013-05-12 07:39:00,44.9,41.0,29.48,WSW,256,17.3,17.3,86,0.00,CLR,,0.00,WeatherDisplay:10.37,2013-05-12 11:39:00,
2013-05-12 07:44:00,44.7,40.8,29.48,West,276,15.0,15.0,86,0.00,CLR,,0.00,WeatherDisplay:10.37,2013-05-12 11:44:00,
2013-05-12 07:49:00,44.5,40.6,29.48,West,267,15.0,15.0,86,0.00,CLR,,0.00,WeatherDisplay:10.37,2013-05-12 11:49:00,
2013-05-12 07:54:00,44.3,40.4,29.49,NW,305,11.5,11.5,86,0.00,CLR,,0.00,WeatherDisplay:10.37,2013-05-12 11:54:00,
2013-05-12 07:59:00,44.2,40.3,29.48,NW,309,12.0,12.0,86,0.00,CLR,,0.00,WeatherDisplay:10.37,2013-05-12 11:59:00,
2013-05-12 08:04:00,43.9,40.0,29.48,WNW,298,13.8,13.8,86,0.00,CLR,,0.00,WeatherDisplay:10.37,2013-05-12 12:04:00,
2013-05-12 08:09:00,43.9,40.0,29.49,West,264,13.8,13.8,86,0.00,CLR,,0.00,WeatherDisplay:10.37,2013-05-12 12:09:00,
2013-05-12 08:14:00,44.1,40.2,29.49,WNW,296,13.0,13.0,86,0.00,CLR,,0.00,WeatherDisplay:10.37,2013-05-12 12:14:00,
2013-05-12 08:19:00,44.0,39.8,29.49,NW,309,13.8,13.8,85,0.00,CLR,,0.00,WeatherDisplay:10.37,2013-05-12 12:19:00,
2013-05-12 08:24:00,43.9,39.7,29.49,WNW,284,14.0,14.0,85,0.00,CLR,,0.00,WeatherDisplay:10.37,2013-05-12 12:24:00,
2013-05-12 08:29:00,43.8,39.6,29.49,West,264,12.7,12.7,85,0.00,CLR,,0.00,WeatherDisplay:10.37,2013-05-12 12:29:00,
2013-05-12 08:34:00,43.7,39.8,29.50,West,264,17.3,17.3,86,0.00,CLR,,0.00,WeatherDisplay:10.37,2013-05-12 12:34:00,
2013-05-12 08:39:00,43.6,39.4,29.50,WNW,296,13.8,13.8,85,0.00,CLR,,0.00,WeatherDisplay:10.37,2013-05-12 12:39:00,
2013-05-12 08:44:00,43.4,39.2,29.50,NW,309,15.0,15.0,85,0.00,CLR,,0.00,WeatherDisplay:10.37,2013-05-12 12:44:00,
2013-05-12 08:49:00,43.2,39.0,29.50,NW,308,10.4,10.4,85,0.00,CLR,,0.00,WeatherDisplay:10.37,2013-05-12 12:49:00,
2013-05-12 08:54:00,43.1,38.9,29.50,West,271,13.0,13.0,85,0.00,CLR,,0.00,WeatherDisplay:10.37,2013-05-12 12:54:00,
2013-05-12 08:59:00,43.2,39.0,29.50,WNW,294,11.5,11.5,85,0.00,CLR,,0.00,WeatherDisplay:10.37,2013-05-12 12:59:00,
2013-05-12 09:04:00,43.2,38.7,29.50,NW,318,12.7,12.7,84,0.00,CLR,,0.00,WeatherDisplay:10.37,2013-05-12 13:04:00,
2013-05-12 09:09:00,43.2,38.4,29.50,WNW,286,15.0,15.0,83,0.00,CLR,,0.00,WeatherDisplay:10.37,2013-05-12 13:09:00,
2013-05-12 09:14:00,43.2,38.1,29.50,West,267,12.7,12.7,82,0.00,CLR,,0.00,WeatherDisplay:10.37,2013-05-12 13:14:00,
2013-05-12 09:19:00,43.3,38.2,29.50,NW,311,8.0,8.0,82,0.00,CLR,,0.00,WeatherDisplay:10.37,2013-05-12 13:19:00,
2013-05-12 09:24:00,43.7,38.6,29.51,WNW,295,8.1,8.1,82,0.00,CLR,,0.00,WeatherDisplay:10.37,2013-05-12 13:24:00,
2013-05-12 09:29:00,44.0,38.5,29.50,NW,314,6.0,6.0,81,0.00,CLR,,0.00,WeatherDisplay:10.37,2013-05-12 13:29:00,
2013-05-12 09:34:00,44.3,38.2,29.51,West,273,10.0,10.0,79,0.00,CLR,,0.00,WeatherDisplay:10.37,2013-05-12 13:34:00,
2013-05-12 09:39:00,44.9,38.1,29.51,West,268,14.0,14.0,77,0.00,CLR,,0.00,WeatherDisplay:10.37,2013-05-12 13:39:00,
2013-05-12 09:44:00,45.8,38.3,29.51,WSW,242,17.3,17.3,75,0.00,CLR,,0.00,WeatherDisplay:10.37,2013-05-12 13:44:00,
2013-05-12 09:49:00,46.0,37.1,29.51,WNW,288,13.8,13.8,71,0.00,CLR,,0.00,WeatherDisplay:10.37,2013-05-12 13:49:00,
2013-05-12 09:54:00,46.5,37.6,29.51,West,265,19.0,19.0,71,0.00,CLR,,0.00,WeatherDisplay:10.37,2013-05-12 13:54:00,
2013-05-12 09:59:00,46.4,36.8,29.51,WSW,257,19.6,19.6,69,0.00,CLR,,0.00,WeatherDisplay:10.37,2013-05-12 13:59:00,
2013-05-12 10:04:00,46.5,37.2,29.51,WSW,256,16.0,16.0,70,0.00,CLR,,0.00,WeatherDisplay:10.37,2013-05-12 14:04:00,
2013-05-12 10:09:00,46.9,36.9,29.50,West,281,20.0,20.0,68,0.00,CLR,,0.00,WeatherDisplay:10.37,2013-05-12 14:09:00,
2013-05-12 10:14:00,47.0,37.0,29.50,WSW,248,17.3,17.3,68,0.00,CLR,,0.00,WeatherDisplay:10.37,2013-05-12 14:14:00,
2013-05-12 10:19:00,47.6,36.4,29.50,West,264,21.0,21.0,65,0.00,CLR,,0.00,WeatherDisplay:10.37,2013-05-12 14:19:00,
2013-05-12 10:24:00,47.3,34.5,29.50,SW,233,24.2,24.2,61,0.00,CLR,,0.00,WeatherDisplay:10.37,2013-05-12 14:24:00,
2013-05-12 10:29:00,47.0,33.8,29.50,WSW,257,23.0,23.0,60,0.00,CLR,,0.00,WeatherDisplay:10.37,2013-05-12 14:29:00,
2013-05-12 10:34:00,47.1,33.1,29.50,WSW,255,20.7,20.7,58,0.00,CLR,,0.00,WeatherDisplay:10.37,2013-05-12 14:34:00,
2013-05-12 10:39:00,47.1,32.6,29.50,WSW,257,26.5,26.5,57,0.00,CLR,,0.00,WeatherDisplay:10.37,2013-05-12 14:39:00,
2013-05-12 10:44:00,47.4,33.4,29.50,West,264,19.6,19.6,58,0.00,CLR,,0.00,WeatherDisplay:10.37,2013-05-12 14:44:00,
2013-05-12 10:49:00,47.7,33.2,29.50,WSW,242,17.3,17.3,57,0.00,CLR,,0.00,WeatherDisplay:10.37,2013-05-12 14:49:00,
2013-05-12 10:54:00,47.9,32.5,29.50,WNW,300,18.4,18.4,55,0.00,CLR,,0.00,WeatherDisplay:10.37,2013-05-12 14:54:00,
2013-05-12 10:59:00,48.8,33.8,29.50,WSW,248,19.6,19.6,56,0.00,CLR,,0.00,WeatherDisplay:10.37,2013-05-12 14:59:00,
2013-05-12 11:04:00,48.7,32.8,29.50,WSW,254,25.3,25.3,54,0.00,CLR,,0.00,WeatherDisplay:10.37,2013-05-12 15:04:00,
2013-05-12 11:09:00,48.5,33.1,29.51,WSW,252,16.1,16.1,55,0.00,CLR,,0.00,WeatherDisplay:10.37,2013-05-12 15:09:00,
2013-05-12 11:14:00,48.7,34.1,29.50,West,280,15.0,15.0,57,0.00,CLR,,0.00,WeatherDisplay:10.37,2013-05-12 15:14:00,
2013-05-12 11:19:00,49.0,33.5,29.50,WSW,250,17.3,17.3,55,0.00,CLR,,0.00,WeatherDisplay:10.37,2013-05-12 15:19:00,
2013-05-12 11:24:00,49.2,34.2,29.50,NW,311,17.3,17.3,56,0.00,CLR,,0.00,WeatherDisplay:10.37,2013-05-12 15:24:00,
2013-05-12 11:29:00,49.6,34.1,29.50,West,262,19.6,19.6,55,0.00,CLR,,0.00,WeatherDisplay:10.37,2013-05-12 15:29:00,
2013-05-12 11:34:00,49.4,33.4,29.50,WSW,249,15.0,15.0,54,0.00,CLR,,0.00,WeatherDisplay:10.37,2013-05-12 15:34:00,
2013-05-12 11:39:00,49.6,33.6,29.50,WSW,237,12.7,12.7,54,0.00,CLR,,0.00,WeatherDisplay:10.37,2013-05-12 15:39:00,
2013-05-12 11:44:00,49.6,34.1,29.50,WSW,248,20.0,20.0,55,0.00,CLR,,0.00,WeatherDisplay:10.37,2013-05-12 15:44:00,
2013-05-12 11:49:00,50.3,34.7,29.50,West,277,14.0,14.0,55,0.00,CLR,,0.00,WeatherDisplay:10.37,2013-05-12 15:49:00,
2013-05-12 11:54:00,50.5,33.5,29.50,West,272,19.6,19.6,52,0.00,CLR,,0.00,WeatherDisplay:10.37,2013-05-12 15:54:00,
2013-05-12 11:59:00,50.6,34.1,29.50,WSW,251,18.4,18.4,53,0.00,CLR,,0.00,WeatherDisplay:10.37,2013-05-12 15:59:00,
2013-05-12 12:04:00,50.3,33.3,29.50,WSW,256,17.0,17.0,52,0.00,CLR,,0.00,WeatherDisplay:10.37,2013-05-12 16:04:00,
2013-05-12 12:09:00,49.7,33.7,29.50,SSW,209,17.3,17.3,54,0.00,CLR,,0.00,WeatherDisplay:10.37,2013-05-12 16:09:00,
2013-05-12 12:14:00,49.7,31.3,29.50,SW,215,16.1,16.1,49,0.00,CLR,,0.00,WeatherDisplay:10.37,2013-05-12 16:14:00,
2013-05-12 12:19:00,50.2,34.2,29.50,WSW,254,14.0,14.0,54,0.00,CLR,,0.00,WeatherDisplay:10.37,2013-05-12 16:19:00,
2013-05-12 12:24:00,50.0,33.1,29.50,West,269,9.0,9.0,52,0.00,CLR,,0.00,WeatherDisplay:10.37,2013-05-12 16:24:00,
2013-05-12 12:29:00,49.5,31.6,29.50,SW,227,13.8,13.8,50,0.00,CLR,,0.00,WeatherDisplay:10.37,2013-05-12 16:29:00,
2013-05-12 12:34:00,49.2,31.8,29.50,West,264,11.5,11.5,51,0.00,CLR,,0.00,WeatherDisplay:10.37,2013-05-12 16:34:00,
2013-05-12 12:39:00,49.9,31.5,29.50,SW,224,11.5,11.5,49,0.00,CLR,,0.00,WeatherDisplay:10.37,2013-05-12 16:39:00,
2013-05-12 12:44:00,51.0,33.5,29.50,West,266,16.0,16.0,51,0.00,CLR,,0.00,WeatherDisplay:10.37,2013-05-12 16:44:00,
2013-05-12 12:49:00,52.1,34.0,29.50,West,271,22.0,22.0,50,0.00,CLR,,0.00,WeatherDisplay:10.37,2013-05-12 16:49:00,
2013-05-12 12:54:00,52.6,32.4,29.50,West,275,18.4,18.4,46,0.00,CLR,,0.00,WeatherDisplay:10.37,2013-05-12 16:54:00,
2013-05-12 12:59:00,52.0,31.8,29.50,WSW,254,18.0,18.0,46,0.00,CLR,,0.00,WeatherDisplay:10.37,2013-05-12 16:59:00,
2013-05-12 13:04:00,52.6,32.9,29.50,SW,227,18.4,18.4,47,0.00,CLR,,0.00,WeatherDisplay:10.37,2013-05-12 17:04:00,
2013-05-12 13:09:00,51.9,30.6,29.50,SW,217,16.0,16.0,44,0.00,CLR,,0.00,WeatherDisplay:10.37,2013-05-12 17:09:00,
2013-05-12 13:14:00,51.5,31.4,29.50,SW,221,20.7,20.7,46,0.00,CLR,,0.00,WeatherDisplay:10.37,2013-05-12 17:14:00,
2013-05-12 13:19:00,51.9,31.7,29.50,West,268,18.4,18.4,46,0.00,CLR,,0.00,WeatherDisplay:10.37,2013-05-12 17:19:00,
2013-05-12 13:24:00,51.5,30.8,29.50,SW,234,18.4,18.4,45,0.00,CLR,,0.00,WeatherDisplay:10.37,2013-05-12 17:24:00,
2013-05-12 13:29:00,51.3,30.7,29.50,SW,223,15.0,15.0,45,0.00,CLR,,0.00,WeatherDisplay:10.37,2013-05-12 17:29:00,
2013-05-12 13:34:00,51.7,31.0,29.50,SW,217,16.1,16.1,45,0.00,CLR,,0.00,WeatherDisplay:10.37,2013-05-12 17:34:00,
2013-05-12 13:39:00,51.7,30.5,29.50,WSW,241,14.0,14.0,44,0.00,CLR,,0.00,WeatherDisplay:10.37,2013-05-12 17:39:00,
2013-05-12 13:44:00,52.7,32.5,29.49,SSW,210,19.6,19.6,46,0.00,CLR,,0.00,WeatherDisplay:10.37,2013-05-12 17:44:00,
2013-05-12 13:49:00,52.3,31.6,29.49,WNW,283,10.4,10.4,45,0.00,CLR,,0.00,WeatherDisplay:10.37,2013-05-12 17:49:00,
2013-05-12 13:54:00,52.4,30.5,29.49,WSW,241,12.0,12.0,43,0.00,CLR,,0.00,WeatherDisplay:10.37,2013-05-12 17:54:00,
2013-05-12 13:59:00,53.8,31.2,29.49,SSW,209,20.7,20.7,42,0.00,CLR,,0.00,WeatherDisplay:10.37,2013-05-12 17:59:00,
2013-05-12 14:04:00,53.3,32.5,29.49,SW,219,18.4,18.4,45,0.00,CLR,,0.00,WeatherDisplay:10.37,2013-05-12 18:04:00,
2013-05-12 14:09:00,52.8,30.9,29.49,WSW,249,16.0,16.0,43,0.00,CLR,,0.00,WeatherDisplay:10.37,2013-05-12 18:09:00,
2013-05-12 14:14:00,52.6,31.3,29.49,WSW,248,24.2,24.2,44,0.00,CLR,,0.00,WeatherDisplay:10.37,2013-05-12 18:14:00,
2013-05-12 14:19:00,53.2,31.8,29.49,WSW,247,24.2,24.2,44,0.00,CLR,,0.00,WeatherDisplay:10.37,2013-05-12 18:19:00,
2013-05-12 14:24:00,53.4,32.6,29.49,WSW,254,20.7,20.7,45,0.00,CLR,,0.00,WeatherDisplay:10.37,2013-05-12 18:24:00,
2013-05-12 14:29:00,53.4,31.4,29.49,WSW,257,20.7,20.7,43,0.00,CLR,,0.00,WeatherDisplay:10.37,2013-05-12 18:29:00,
2013-05-12 14:34:00,52.7,31.4,29.49,SSW,205,18.0,18.0,44,0.00,CLR,,0.00,WeatherDisplay:10.37,2013-05-12 18:34:00,
2013-05-12 14:39:00,52.3,31.6,29.49,SW,235,16.1,16.1,45,0.00,CLR,,0.00,WeatherDisplay:10.37,2013-05-12 18:39:00,
2013-05-12 14:44:00,52.6,30.7,29.49,SW,214,18.4,18.4,43,0.00,CLR,,0.00,WeatherDisplay:10.37,2013-05-12 18:44:00,
2013-05-12 14:49:00,52.9,30.4,29.49,WSW,255,20.0,20.0,42,0.00,CLR,,0.00,WeatherDisplay:10.37,2013-05-12 18:49:00,
2013-05-12 14:54:00,52.9,31.6,29.49,WSW,256,19.0,19.0,44,0.00,CLR,,0.00,WeatherDisplay:10.37,2013-05-12 18:54:00,
2013-05-12 14:59:00,52.9,31.0,29.49,West,269,21.0,21.0,43,0.00,CLR,,0.00,WeatherDisplay:10.37,2013-05-12 18:59:00,
2013-05-12 15:04:00,53.3,32.5,29.49,West,275,15.0,15.0,45,0.00,CLR,,0.00,WeatherDisplay:10.37,2013-05-12 19:04:00,
2013-05-12 15:09:00,52.9,32.1,29.49,WSW,245,16.1,16.1,45,0.00,CLR,,0.00,WeatherDisplay:10.37,2013-05-12 19:09:00,
2013-05-12 15:14:00,52.9,30.4,29.49,WSW,238,19.6,19.6,42,0.00,CLR,,0.00,WeatherDisplay:10.37,2013-05-12 19:14:00,
2013-05-12 15:19:00,53.9,31.3,29.48,SW,220,24.0,24.0,42,0.00,CLR,,0.00,WeatherDisplay:10.37,2013-05-12 19:19:00,
2013-05-12 15:24:00,54.0,30.8,29.48,WSW,246,19.6,19.6,41,0.00,CLR,,0.00,WeatherDisplay:10.37,2013-05-12 19:24:00,
2013-05-12 15:29:00,54.4,30.6,29.48,WSW,245,15.0,15.0,40,0.00,CLR,,0.00,WeatherDisplay:10.37,2013-05-12 19:29:00,
2013-05-12 15:34:00,54.3,31.7,29.48,SSW,211,19.6,19.6,42,0.00,CLR,,0.00,WeatherDisplay:10.37,2013-05-12 19:34:00,
2013-05-12 15:39:00,54.9,30.4,29.48,WSW,250,20.7,20.7,39,0.00,CLR,,0.00,WeatherDisplay:10.37,2013-05-12 19:39:00,
2013-05-12 15:44:00,55.7,28.4,29.48,SW,221,26.5,26.5,35,0.00,CLR,,0.00,WeatherDisplay:10.37,2013-05-12 19:44:00,
2013-05-12 15:49:00,55.0,28.5,29.48,WSW,248,23.0,23.0,36,0.00,CLR,,0.00,WeatherDisplay:10.37,2013-05-12 19:49:00,
2013-05-12 15:54:00,54.0,28.3,29.48,West,264,20.7,20.7,37,0.00,CLR,,0.00,WeatherDisplay:10.37,2013-05-12 19:54:00,
2013-05-12 15:59:00,53.5,28.5,29.48,SW,229,19.6,19.6,38,0.00,CLR,,0.00,WeatherDisplay:10.37,2013-05-12 19:59:00,
2013-05-12 16:04:00,53.0,28.0,29.49,SW,230,16.1,16.1,38,0.00,CLR,,0.00,WeatherDisplay:10.37,2013-05-12 20:04:00,
2013-05-12 16:09:00,53.0,28.7,29.48,WSW,240,15.0,15.0,39,0.00,CLR,,0.00,WeatherDisplay:10.37,2013-05-12 20:09:00,
2013-05-12 16:14:00,53.3,31.4,29.49,SSW,205,15.0,15.0,43,0.00,CLR,,0.00,WeatherDisplay:10.37,2013-05-12 20:14:00,
2013-05-12 16:19:00,53.6,29.8,29.48,SSW,206,19.6,19.6,40,0.00,CLR,,0.00,WeatherDisplay:10.37,2013-05-12 20:19:00,
2013-05-12 16:24:00,53.7,29.9,29.49,WSW,252,19.6,19.6,40,0.00,CLR,,0.00,WeatherDisplay:10.37,2013-05-12 20:24:00,
2013-05-12 16:29:00,53.5,27.8,29.49,SW,231,25.3,25.3,37,0.00,CLR,,0.00,WeatherDisplay:10.37,2013-05-12 20:29:00,
2013-05-12 16:34:00,52.7,29.0,29.50,WSW,248,31.0,31.0,40,0.00,CLR,,0.00,WeatherDisplay:10.37,2013-05-12 20:34:00,
2013-05-12 16:39:00,50.6,30.0,29.51,SW,234,16.1,16.1,45,0.00,CLR,,0.00,WeatherDisplay:10.37,2013-05-12 20:39:00,
2013-05-12 16:44:00,50.6,31.1,29.50,SSE,166,17.3,17.3,47,0.00,CLR,,0.00,WeatherDisplay:10.37,2013-05-12 20:44:00,
2013-05-12 16:49:00,51.0,32.5,29.50,SSE,167,14.0,14.0,49,0.00,CLR,,0.00,WeatherDisplay:10.37,2013-05-12 20:49:00,
2013-05-12 16:54:00,51.4,31.8,29.50,SSW,208,12.0,12.0,47,0.00,CLR,,0.00,WeatherDisplay:10.37,2013-05-12 20:54:00,
2013-05-12 16:59:00,51.7,31.6,29.50,WSW,239,16.1,16.1,46,0.00,CLR,,0.00,WeatherDisplay:10.37,2013-05-12 20:59:00,
2013-05-12 17:04:00,51.5,31.9,29.50,SW,221,16.0,16.0,47,0.00,CLR,,0.00,WeatherDisplay:10.37,2013-05-12 21:04:00,
2013-05-12 17:09:00,52.0,31.3,29.50,SW,236,17.3,17.3,45,0.00,CLR,,0.00,WeatherDisplay:10.37,2013-05-12 21:09:00,
2013-05-12 17:14:00,52.4,30.5,29.50,SW,227,15.0,15.0,43,0.00,CLR,,0.00,WeatherDisplay:10.37,2013-05-12 21:14:00,
2013-05-12 17:19:00,52.8,30.9,29.50,WSW,242,18.0,18.0,43,0.00,CLR,,0.00,WeatherDisplay:10.37,2013-05-12 21:19:00,
2013-05-12 17:24:00,53.0,30.5,29.50,WSW,252,19.6,19.6,42,0.00,CLR,,0.00,WeatherDisplay:10.37,2013-05-12 21:24:00,
2013-05-12 17:29:00,52.9,29.2,29.51,WSW,257,18.4,18.4,40,0.00,CLR,,0.00,WeatherDisplay:10.37,2013-05-12 21:29:00,
2013-05-12 17:34:00,53.2,28.2,29.51,West,265,19.6,19.6,38,0.00,CLR,,0.00,WeatherDisplay:10.37,2013-05-12 21:34:00,
2013-05-12 17:39:00,52.9,28.0,29.51,WSW,238,23.0,23.0,38,0.00,CLR,,0.00,WeatherDisplay:10.37,2013-05-12 21:39:00,
2013-05-12 17:44:00,52.6,28.9,29.51,SW,222,20.0,20.0,40,0.00,CLR,,0.00,WeatherDisplay:10.37,2013-05-12 21:44:00,
2013-05-12 17:49:00,53.0,28.7,29.51,SW,224,21.0,21.0,39,0.00,CLR,,0.00,WeatherDisplay:10.37,2013-05-12 21:49:00,
2013-05-12 17:54:00,52.8,29.1,29.51,West,259,20.0,20.0,40,0.00,CLR,,0.00,WeatherDisplay:10.37,2013-05-12 21:54:00,
2013-05-12 17:59:00,52.4,28.8,29.52,WSW,248,21.9,21.9,40,0.00,CLR,,0.00,WeatherDisplay:10.37,2013-05-12 21:59:00,
2013-05-12 18:04:00,52.2,28.6,29.52,SW,235,19.0,19.0,40,0.00,CLR,,0.00,WeatherDisplay:10.37,2013-05-12 22:04:00,
2013-05-12 18:09:00,51.8,28.2,29.51,WSW,246,25.3,25.3,40,0.00,CLR,,0.00,WeatherDisplay:10.37,2013-05-12 22:09:00,
2013-05-12 18:14:00,51.5,27.9,29.52,WSW,248,20.0,20.0,40,0.00,CLR,,0.00,WeatherDisplay:10.37,2013-05-12 22:14:00,
2013-05-12 18:19:00,51.6,28.6,29.52,WNW,301,21.9,21.9,41,0.00,CLR,,0.00,WeatherDisplay:10.37,2013-05-12 22:19:00,
2013-05-12 18:24:00,51.4,32.3,29.53,NW,306,19.6,19.6,48,0.00,CLR,,0.00,WeatherDisplay:10.37,2013-05-12 22:24:00,
2013-05-12 18:29:00,49.1,33.6,29.54,WNW,287,16.0,16.0,55,0.00,CLR,,0.00,WeatherDisplay:10.37,2013-05-12 22:29:00,
2013-05-12 18:34:00,47.4,35.0,29.54,NW,305,16.1,16.1,62,0.00,CLR,,0.00,WeatherDisplay:10.37,2013-05-12 22:34:00,
2013-05-12 18:39:00,46.5,35.7,29.55,WNW,298,16.0,16.0,66,0.00,CLR,,0.00,WeatherDisplay:10.37,2013-05-12 22:39:00,
2013-05-12 18:44:00,45.9,35.9,29.55,WNW,296,13.8,13.8,68,0.00,CLR,,0.00,WeatherDisplay:10.37,2013-05-12 22:44:00,
2013-05-12 18:49:00,45.5,35.5,29.55,NW,313,16.1,16.1,68,0.00,CLR,,0.00,WeatherDisplay:10.37,2013-05-12 22:49:00,
2013-05-12 18:54:00,45.2,35.6,29.55,NW,308,15.0,15.0,69,0.00,CLR,,0.00,WeatherDisplay:10.37,2013-05-12 22:54:00,
2013-05-12 18:59:00,44.9,35.3,29.55,WNW,295,14.0,14.0,69,0.00,CLR,,0.00,WeatherDisplay:10.37,2013-05-12 22:59:00,
2013-05-12 19:04:00,45.1,35.9,29.56,West,263,11.0,11.0,70,0.00,CLR,,0.00,WeatherDisplay:10.37,2013-05-12 23:04:00,
2013-05-12 19:09:00,45.0,35.8,29.56,WNW,288,11.5,11.5,70,0.00,CLR,,0.00,WeatherDisplay:10.37,2013-05-12 23:09:00,
2013-05-12 19:14:00,45.0,35.4,29.56,NW,305,11.5,11.5,69,0.00,CLR,,0.00,WeatherDisplay:10.37,2013-05-12 23:14:00,
2013-05-12 19:19:00,44.8,35.6,29.56,West,271,11.5,11.5,70,0.00,CLR,,0.00,WeatherDisplay:10.37,2013-05-12 23:19:00,
2013-05-12 19:24:00,44.7,35.1,29.56,WNW,299,8.0,8.0,69,0.00,CLR,,0.00,WeatherDisplay:10.37,2013-05-12 23:24:00,
2013-05-12 19:29:00,44.4,35.2,29.57,West,273,6.0,6.0,70,0.00,CLR,,0.00,WeatherDisplay:10.37,2013-05-12 23:29:00,
2013-05-12 19:34:00,44.0,35.2,29.57,West,265,10.4,10.4,71,0.00,CLR,,0.00,WeatherDisplay:10.37,2013-05-12 23:34:00,
2013-05-12 19:39:00,44.0,35.2,29.57,WSW,256,6.9,6.9,71,0.00,CLR,,0.00,WeatherDisplay:10.37,2013-05-12 23:39:00,
2013-05-12 19:44:00,43.7,35.3,29.57,West,263,11.5,11.5,72,0.00,CLR,,0.00,WeatherDisplay:10.37,2013-05-12 23:44:00,
2013-05-12 19:49:00,43.7,35.3,29.57,WSW,246,10.4,10.4,72,0.00,CLR,,0.00,WeatherDisplay:10.37,2013-05-12 23:49:00,
2013-05-12 19:54:00,43.4,35.0,29.57,WSW,248,9.2,9.2,72,0.00,CLR,,0.00,WeatherDisplay:10.37,2013-05-12 23:54:00,
2013-05-12 19:59:00,43.4,35.0,29.57,WSW,258,10.0,10.0,72,0.00,CLR,,0.00,WeatherDisplay:10.37,2013-05-12 23:59:00,
2013-05-12 20:04:00,43.3,34.9,29.58,WSW,240,11.0,11.0,72,0.00,CLR,,0.00,WeatherDisplay:10.37,2013-05-13 00:04:00,
2013-05-12 20:09:00,43.2,35.1,29.57,WSW,238,8.0,8.0,73,0.00,CLR,,0.00,WeatherDisplay:10.37,2013-05-13 00:09:00,
2013-05-12 20:14:00,43.1,35.0,29.57,West,259,6.9,6.9,73,0.00,CLR,,0.00,WeatherDisplay:10.37,2013-05-13 00:14:00,
2013-05-12 20:19:00,43.1,35.0,29.57,WSW,237,8.1,8.1,73,0.00,CLR,,0.00,WeatherDisplay:10.37,2013-05-13 00:19:00,
2013-05-12 20:24:00,43.0,34.9,29.57,West,264,9.2,9.2,73,0.00,CLR,,0.00,WeatherDisplay:10.37,2013-05-13 00:24:00,
2013-05-12 20:29:00,42.9,34.8,29.57,WSW,257,5.0,5.0,73,0.00,CLR,,0.00,WeatherDisplay:10.37,2013-05-13 00:29:00,
2013-05-12 20:34:00,42.8,35.1,29.57,SW,232,5.8,5.8,74,0.00,CLR,,0.00,WeatherDisplay:10.37,2013-05-13 00:34:00,
2013-05-12 20:39:00,42.5,35.1,29.57,SW,222,5.0,5.0,75,0.00,CLR,,0.00,WeatherDisplay:10.37,2013-05-13 00:39:00,
2013-05-12 20:44:00,42.2,35.2,29.57,SSW,195,4.0,4.0,76,0.00,CLR,,0.00,WeatherDisplay:10.37,2013-05-13 00:44:00,
2013-05-12 20:49:00,42.2,35.2,29.58,SW,222,6.0,6.0,76,0.00,CLR,,0.00,WeatherDisplay:10.37,2013-05-13 00:49:00,
2013-05-12 20:54:00,42.0,35.3,29.58,SW,225,6.0,6.0,77,0.00,CLR,,0.00,WeatherDisplay:10.37,2013-05-13 00:54:00,
2013-05-12 20:59:00,42.0,35.3,29.58,SW,229,9.0,9.0,77,0.00,CLR,,0.00,WeatherDisplay:10.37,2013-05-13 00:59:00,
2013-05-12 21:04:00,42.1,35.4,29.58,SW,217,7.0,7.0,77,0.00,CLR,,0.00,WeatherDisplay:10.37,2013-05-13 01:04:00,
2013-05-12 21:09:00,42.3,36.3,29.59,SSW,209,11.5,11.5,79,0.00,CLR,,0.00,WeatherDisplay:10.37,2013-05-13 01:09:00,
2013-05-12 21:14:00,42.2,36.8,29.59,SW,228,17.3,17.3,81,0.00,CLR,,0.00,WeatherDisplay:10.37,2013-05-13 01:14:00,
2013-05-12 21:19:00,42.2,36.2,29.59,WSW,241,21.0,21.0,79,0.00,CLR,,0.00,WeatherDisplay:10.37,2013-05-13 01:19:00,
2013-05-12 21:24:00,42.0,36.0,29.60,SSW,209,15.0,15.0,79,0.00,CLR,,0.00,WeatherDisplay:10.37,2013-05-13 01:24:00,
2013-05-12 21:29:00,41.6,36.2,29.60,SSW,212,11.5,11.5,81,0.00,CLR,,0.00,WeatherDisplay:10.37,2013-05-13 01:29:00,
2013-05-12 21:34:00,41.3,36.2,29.60,SW,215,9.2,9.2,82,0.00,CLR,,0.00,WeatherDisplay:10.37,2013-05-13 01:34:00,
2013-05-12 21:39:00,41.1,36.0,29.60,SW,222,11.5,11.5,82,0.00,CLR,,0.00,WeatherDisplay:10.37,2013-05-13 01:39:00,
2013-05-12 21:44:00,41.1,35.7,29.60,SW,222,13.0,13.0,81,0.00,CLR,,0.00,WeatherDisplay:10.37,2013-05-13 01:44:00,
2013-05-12 21:49:00,41.2,35.5,29.60,WSW,239,11.5,11.5,80,0.00,CLR,,0.00,WeatherDisplay:10.37,2013-05-13 01:49:00,
2013-05-12 21:54:00,41.2,35.2,29.60,SW,234,11.5,11.5,79,0.00,CLR,,0.00,WeatherDisplay:10.37,2013-05-13 01:54:00,
2013-05-12 21:59:00,41.2,35.2,29.60,SW,224,10.4,10.4,79,0.00,CLR,,0.00,WeatherDisplay:10.37,2013-05-13 01:59:00,
2013-05-12 22:04:00,41.2,35.2,29.60,SW,222,10.0,10.0,79,0.00,CLR,,0.00,WeatherDisplay:10.37,2013-05-13 02:04:00,
2013-05-12 22:09:00,41.2,34.9,29.60,SW,227,11.5,11.5,78,0.00,CLR,,0.00,WeatherDisplay:10.37,2013-05-13 02:09:00,
2013-05-12 22:14:00,41.2,35.2,29.60,SW,227,8.1,8.1,79,0.00,CLR,,0.00,WeatherDisplay:10.37,2013-05-13 02:14:00,
2013-05-12 22:19:00,41.3,35.0,29.60,SW,214,9.2,9.2,78,0.00,CLR,,0.00,WeatherDisplay:10.37,2013-05-13 02:19:00,
2013-05-12 22:24:00,41.3,35.0,29.60,SW,223,12.0,12.0,78,0.00,CLR,,0.00,WeatherDisplay:10.37,2013-05-13 02:24:00,
2013-05-12 22:29:00,41.4,35.1,29.60,WSW,240,12.7,12.7,78,0.00,CLR,,0.00,WeatherDisplay:10.37,2013-05-13 02:29:00,
2013-05-12 22:34:00,41.5,35.2,29.61,WNW,292,11.5,11.5,78,0.00,CLR,,0.00,WeatherDisplay:10.37,2013-05-13 02:34:00,
2013-05-12 22:39:00,41.0,35.0,29.62,West,260,19.6,19.6,79,0.00,CLR,,0.00,WeatherDisplay:10.37,2013-05-13 02:39:00,
2013-05-12 22:44:00,39.6,34.2,29.62,West,259,24.2,24.2,81,0.02,RA,,0.02,WeatherDisplay:10.37,2013-05-13 02:44:00,
2013-05-12 22:49:00,38.2,33.5,29.62,SW,218,16.1,16.1,83,0.02,RA,,0.02,WeatherDisplay:10.37,2013-05-13 02:49:00,
2013-05-12 22:54:00,37.6,33.5,29.62,SW,225,16.1,16.1,85,0.03,RA,,0.03,WeatherDisplay:10.37,2013-05-13 02:54:00,
2013-05-12 22:59:00,37.3,33.5,29.62,WSW,249,19.6,19.6,86,0.04,RA,,0.04,WeatherDisplay:10.37,2013-05-13 02:59:00,
2013-05-12 23:04:00,37.0,33.5,29.62,WSW,241,18.4,18.4,87,0.04,RA,,0.04,WeatherDisplay:10.37,2013-05-13 03:04:00,
2013-05-12 23:09:00,37.0,33.5,29.63,SW,215,17.3,17.3,87,0.04,,,0.04,WeatherDisplay:10.37,2013-05-13 03:09:00,
2013-05-12 23:14:00,37.0,33.2,29.63,WSW,242,12.7,12.7,86,0.04,CLR,,0.04,WeatherDisplay:10.37,2013-05-13 03:14:00,
2013-05-12 23:19:00,37.0,33.2,29.62,SW,232,12.0,12.0,86,0.04,CLR,,0.04,WeatherDisplay:10.37,2013-05-13 03:19:00,
2013-05-12 23:24:00,37.0,33.2,29.62,SW,234,12.7,12.7,86,0.04,CLR,,0.04,WeatherDisplay:10.37,2013-05-13 03:24:00,
2013-05-12 23:29:00,37.1,33.3,29.62,SW,226,13.0,13.0,86,0.04,CLR,,0.04,WeatherDisplay:10.37,2013-05-13 03:29:00,
2013-05-12 23:34:00,37.0,33.2,29.62,SW,215,13.8,13.8,86,0.04,CLR,,0.04,WeatherDisplay:10.37,2013-05-13 03:34:00,
2013-05-12 23:39:00,37.1,33.3,29.62,SW,225,11.5,11.5,86,0.04,CLR,,0.04,WeatherDisplay:10.37,2013-05-13 03:39:00,
2013-05-12 23:44:00,37.1,33.3,29.62,SW,228,15.0,15.0,86,0.02,CLR,,0.04,WeatherDisplay:10.37,2013-05-13 03:44:00,
2013-05-12 23:49:00,37.3,33.5,29.62,SW,231,11.5,11.5,86,0.02,CLR,,0.04,WeatherDisplay:10.37,2013-05-13 03:49:00,
2013-05-12 23:54:00,37.5,33.7,29.62,WSW,237,16.0,16.0,86,0.01,CLR,,0.04,WeatherDisplay:10.37,2013-05-13 03:54:00,
2013-05-12 23:59:00,37.7,33.6,29.63,WSW,241,13.8,13.8,85,0.00,CLR,,0.04,WeatherDisplay:10.37,2013-05-13 03:59:00,